Temp
12 12 12 12 12 11 10 10 10 9 9 9 8 8 8 8 8 8 8 8 8 8 8 7 7 7 7 7 6 7 7 7 7 7 6 7 7 6 7 7 7 7 7
12 12 11 12 12 11 11 10 10 9 9 8 8 8 8 8 8 8 8 8 8 7 7 8 7 7 7 7 7 6 6 6 6 6 6 7 6 6 6 6 7 7 7
12 11 11 11 12 11 10 10 10 9 9 9 9 8 8 8 8 8 8 8 8 8 7 7 7 7 7 7 7 7 7 7 6 6 6 6 6 6 6 6 6 6 7
11 10 10 10 11 11 11 11 10 10 10 9 9 9 9 8 8 8 8 8 8 8 7 7 7 7 7 7 7 7 7 7 6 6 6 6 6 6 6 6 6 6 6
10 10 9 9 10 11 11 11 11 11 11 11 11 11 10 9 9 8 8 8 8 8 7 7 7 6 7 7 7 6 7 7 7 7 6 6 6 6 7 5 5 5 6
11 11 10 8 9 11 11 11 11 11 12 11 11 10 11 10 10 10 9 8 9 8 7 7 7 7 6 6 7 7 6 6 7 7 7 7 6 6 6 5 5 6 5
11 10 10 8 8 9 10 10 10 11 10 10 9 10 9 9 9 9 8 8 8 8 8 7 7 6 6 6 6 7 7 6 6 6 7 7 7 6 5 5 5 5 5
9 10 8 7 9 9 9 10 9 10 9 9 8 8 9 8 7 8 8 8 8 8 8 8 7 6 6 6 6 6 6 6 6 6 6 6 6 7 7 6 5 5 5
9 8 9 8 8 10 10 9 9 9 9 9 8 7 7 8 6 7 7 8 8 7 7 7 7 7 6 6 5 5 6 6 6 5 5 6 6 6 6 5 5 5 5
8 8 8 8 9 10 10 10 9 9 9 9 9 8 8 7 7 7 7 8 8 7 7 7 7 7 6 6 5 5 6 5 5 5 5 5 5 5 5 5 5 5 5
9 9 9 10 10 10 10 9 9 9 9 9 9 8 9 8 7 6 6 6 7 7 7 7 7 7 6 6 5 5 5 5 5 5 4 4 4 4 4 4 5 5 5
9 10 10 10 10 10 10 9 9 9 9 9 9 9 9 7 8 5 5 6 7 7 7 7 7 7 7 6 5 5 4 4 4 4 4 4 4 4 4 4 4 4 4
10 10 10 10 10 9 9 9 9 9 9 9 9 9 9 7 7 6 5 5 6 6 6 7 7 6 7 6 5 5 4 4 4 4 4 4 4 4 3 3 3 3 4
8 9 9 9 8 8 8 8 9 9 9 8 9 9 8 7 5 5 5 4 5 6 6 6 6 6 6 6 5 5 4 4 4 4 3 4 3 3 4 4 4 3 3
8 8 8 8 8 8 8 8 7 8 8 8 8 8 7 6 4 4 5 4 4 5 5 6 6 6 6 5 5 5 4 4 4 3 3 3 3 3 3 3 3 3 3
6 6 6 6 6 6 6 5 6 6 6 7 7 7 6 5 4 5 5 4 4 4 5 5 5 5 6 6 5 5 4 4 3 3 3 3 3 3 3 2 3 2 3
5 4 3 3 4 4 4 4 5 5 5 5 5 5 5 5 5 4 4 4 3 3 4 4 5 5 5 5 4 4 2 3 3 3 2 3 2 3 2 2 2 2 2
4 4 3 3 4 3 3 4 4 4 4 4 5 5 5 5 5 5 4 3 3 3 3 4 4 4 4 4 4 4 3 3 3 3 3 3 3 3 2 2 1 1 2
4 4 4 3 3 3 3 4 4 5 5 5 5 5 5 5 4 4 5 4 3 3 3 4 4 4 4 3 3 3 3 3 3 3 3 2 2 2 1 1 1 1 1
4 4 4 4 3 4 3 3 4 5 5 5 5 5 5 5 5 5 4 4 3 2 3 2 2 2 2 2 2 2 2 2 2 2 1 1 1 1 0 0 0 0 0
4 4 4 4 3 3 2 3 3 3 3 3 3 3 4 4 3 3 0 -0 0 -0 1 0 0 1 1 1 1 1 1 1 1 1 0 0 0 0 0 -0 -0 -0 -0
3 3 3 3 3 2 2 2 2 3 3 3 2 2 2 2 1 1 1 1 0 1 0 0 0 -0 0 1 1 1 1 1 1 0 0 0 -0 -0 -0 -0 -0 -0 -0
3 2 3 3 3 2 1 1 2 2 2 2 1 1 1 1 1 1 1 0 0 1 1 0 -0 -0 0 0 0 1 1 1 1 0 0 -0 -0 -1 -1 -1 -1 -1 -1
2 2 2 2 2 2 1 1 1 2 1 1 1 0 0 1 0 0 -0 0 0 0 -0 -0 -0 0 0 1 1 1 0 0 -0 -0 -1 -1 -1 -1 -1 -1 -1 -1 -1
2 1 2 1 1 1 1 1 1 0 0 0 0 0 -0 0 0 0 1 -0 0 0 0 0 0 1 1 0 0 -0 -0 -1 -1 -1 -2 -2 -2 -2 -2 -2 -2 -2 -2
1 -1 -1 -1 -0 0 -0 -0 -1 -0 -0 -0 -0 0 0 -0 -0 -0 -0 0 1 1 1 0 0 0 -0 -0 -1 -1 -1 -1 -2 -2 -2 -2 -2 -2 -2 -2 -2 -2 -3
Height
3130 3131 3133 3133 3134 3133 3134 3135 3136 3137 3138 3138 3138 3138 3137 3137 3137 3137 3137 3137 3137 3136 3136 3135 3135 3135 3135 3135 3135 3136 3135 3136 3137 3139 3139 3141 3142 3144 3145 3146 3146 3148 3149
3125 3127 3129 3129 3131 3130 3132 3132 3134 3136 3135 3135 3134 3134 3135 3135 3134 3135 3135 3134 3133 3132 3132 3132 3131 3131 3132 3132 3132 3133 3133 3133 3133 3134 3134 3136 3137 3138 3140 3141 3141 3144 3146
3123 3125 3127 3128 3130 3128 3127 3128 3130 3132 3133 3133 3133 3131 3131 3130 3129 3129 3129 3129 3128 3127 3126 3127 3129 3128 3128 3128 3129 3129 3128 3129 3130 3131 3131 3132 3134 3136 3137 3135 3139 3141 3143
3120 3122 3124 3126 3126 3125 3124 3124 3125 3126 3127 3128 3127 3126 3125 3126 3127 3125 3125 3123 3122 3122 3122 3121 3122 3123 3124 3125 3125 3126 3127 3126 3126 3126 3127 3129 3131 3133 3134 3135 3135 3138 3139
3114 3114 3116 3120 3120 3120 3118 3120 3121 3123 3125 3126 3125 3125 3124 3123 3121 3121 3120 3120 3118 3118 3118 3118 3117 3118 3119 3120 3120 3121 3122 3123 3123 3123 3124 3125 3126 3128 3128 3128 3129 3133 3137
3110 3112 3109 3103 3110 3115 3118 3117 3116 3119 3121 3122 3120 3119 3119 3118 3118 3118 3117 3117 3116 3113 3112 3113 3114 3114 3115 3115 3115 3117 3118 3119 3120 3120 3121 3122 3123 3125 3126 3127 3127 3130 3134
3107 3107 3101 3095 3091 3110 3112 3112 3112 3112 3116 3116 3117 3114 3109 3112 3111 3109 3112 3111 3111 3111 3109 3109 3108 3109 3110 3111 3111 3111 3113 3114 3115 3115 3117 3118 3119 3121 3123 3123 3124 3127 3131
3100 3100 3096 3100 3098 3105 3105 3106 3107 3107 3107 3107 3107 3107 3106 3105 3104 3105 3106 3107 3107 3107 3105 3105 3104 3105 3106 3106 3107 3108 3109 3109 3110 3112 3113 3114 3115 3117 3118 3120 3121 3123 3125
3089 3097 3096 3095 3096 3102 3103 3102 3102 3099 3099 3099 3098 3097 3098 3097 3096 3098 3101 3102 3102 3101 3102 3100 3100 3100 3102 3102 3102 3104 3104 3105 3106 3107 3108 3110 3111 3113 3114 3115 3117 3118 3120
3085 3088 3090 3092 3095 3095 3094 3093 3093 3090 3089 3088 3088 3086 3089 3088 3088 3089 3093 3097 3097 3097 3097 3096 3095 3096 3097 3098 3098 3099 3100 3102 3102 3104 3105 3106 3108 3109 3111 3112 3113 3114 3115
3084 3086 3087 3087 3086 3085 3083 3083 3083 3081 3079 3078 3078 3078 3079 3078 3078 3080 3080 3084 3090 3092 3091 3092 3090 3091 3092 3093 3094 3095 3096 3098 3099 3100 3101 3103 3104 3106 3108 3110 3111 3111 3112
3081 3081 3079 3077 3077 3077 3075 3074 3073 3072 3070 3069 3067 3066 3066 3066 3064 3065 3069 3076 3079 3085 3086 3087 3085 3085 3087 3087 3089 3091 3093 3093 3095 3096 3098 3100 3102 3103 3104 3105 3107 3107 3107
3074 3074 3073 3070 3068 3066 3065 3064 3062 3060 3059 3059 3056 3055 3053 3053 3052 3052 3059 3067 3071 3076 3079 3081 3081 3081 3082 3083 3085 3086 3088 3090 3091 3092 3094 3097 3098 3099 3100 3101 3102 3103 3103
3065 3063 3062 3060 3058 3054 3054 3054 3052 3051 3050 3049 3048 3045 3042 3040 3040 3045 3051 3057 3064 3068 3072 3075 3076 3076 3077 3077 3079 3082 3084 3086 3087 3088 3089 3092 3094 3095 3096 3097 3098 3098 3099
3054 3051 3049 3047 3044 3042 3042 3040 3041 3041 3041 3040 3038 3036 3032 3029 3030 3036 3043 3048 3055 3062 3066 3068 3070 3071 3072 3073 3074 3075 3077 3079 3082 3083 3085 3087 3089 3090 3091 3092 3093 3093 3095
3042 3040 3038 3036 3035 3032 3030 3031 3031 3032 3033 3033 3031 3030 3029 3028 3030 3030 3032 3042 3048 3055 3060 3063 3064 3066 3066 3068 3068 3069 3070 3072 3074 3077 3079 3081 3084 3085 3085 3087 3087 3087 3088
3038 3035 3034 3032 3029 3026 3024 3026 3027 3026 3027 3027 3027 3027 3028 3029 3031 3032 3032 3037 3043 3047 3052 3057 3059 3060 3061 3062 3064 3064 3065 3066 3067 3069 3071 3073 3075 3078 3079 3080 3079 3082 3081
3036 3033 3030 3027 3024 3020 3019 3020 3023 3024 3021 3021 3023 3023 3025 3025 3027 3028 3028 3031 3035 3040 3047 3051 3054 3055 3056 3058 3060 3060 3060 3061 3062 3064 3065 3067 3069 3070 3073 3075 3075 3075 3075
3034 3030 3027 3024 3020 3016 3017 3018 3019 3017 3017 3016 3017 3021 3021 3020 3017 3020 3025 3028 3032 3037 3042 3046 3048 3051 3053 3055 3056 3058 3059 3059 3059 3059 3061 3062 3064 3066 3068 3068 3068 3069 3069
3028 3026 3024 3021 3018 3017 3016 3017 3015 3012 3012 3012 3013 3013 3015 3017 3016 3016 3014 3020 3025 3033 3038 3042 3045 3048 3050 3051 3053 3055 3055 3055 3055 3055 3056 3057 3058 3060 3062 3064 3063 3063 3063
3024 3023 3023 3020 3017 3016 3016 3015 3013 3013 3011 3012 3012 3011 3010 3012 3015 3015 3012 3014 3019 3026 3035 3039 3043 3046 3047 3047 3049 3050 3050 3050 3050 3051 3052 3052 3053 3055 3055 3056 3058 3056 3055
3021 3020 3019 3019 3016 3014 3017 3016 3012 3011 3012 3011 3010 3010 3010 3011 3012 3014 3017 3019 3021 3023 3029 3034 3038 3042 3045 3045 3046 3045 3045 3045 3046 3045 3047 3048 3048 3050 3050 3051 3052 3053 3053
3017 3016 3015 3015 3015 3013 3015 3016 3012 3011 3009 3009 3009 3009 3012 3013 3016 3019 3019 3022 3025 3027 3030 3033 3037 3039 3040 3041 3041 3040 3041 3041 3042 3044 3045 3043 3043 3045 3047 3047 3047 3048 3048
3012 3012 3012 3012 3012 3012 3015 3015 3012 3011 3008 3007 3009 3011 3013 3015 3018 3020 3022 3024 3027 3028 3031 3033 3035 3035 3036 3037 3037 3037 3038 3040 3041 3042 3042 3041 3040 3042 3042 3042 3042 3043 3043
3010 3011 3010 3011 3011 3013 3013 3013 3013 3012 3010 3011 3012 3013 3015 3017 3020 3020 3022 3025 3026 3028 3029 3030 3030 3032 3033 3033 3034 3036 3037 3038 3038 3039 3040 3039 3038 3038 3039 3037 3036 3036 3037
3009 3010 3010 3010 3011 3011 3011 3011 3011 3011 3012 3013 3014 3014 3016 3019 3018 3020 3022 3023 3023 3025 3027 3027 3028 3031 3030 3031 3031 3032 3034 3035 3035 3036 3036 3036 3036 3035 3034 3034 3032 3031 3030
Wind_Speed
19 17 12 9 8 7 8 8 8 8 7 6 5 6 7 7 8 8 10 12 14 15 15 15 14 12 13 18 18 16 18 19 22 27 25 24 21 20 19 20 16 17 14
19 18 13 9 7 7 8 8 9 10 9 9 7 9 9 9 9 9 10 12 15 15 16 15 16 16 14 15 17 16 16 17 17 18 18 22 23 15 18 19 14 14 14
20 18 12 8 8 6 8 8 8 10 11 11 11 12 13 12 11 11 11 12 14 15 15 16 17 18 18 19 18 17 16 16 14 13 11 15 13 15 15 15 19 12 15
20 15 9 6 9 7 7 8 9 10 11 12 13 14 15 15 15 13 12 12 12 11 12 14 16 16 17 18 18 18 18 17 15 14 14 15 16 17 18 23 19 19 13
25 20 15 11 10 12 13 10 8 10 14 15 17 19 19 18 16 16 15 12 8 7 11 14 17 16 15 16 17 18 18 17 16 14 13 14 15 12 11 17 20 13 14
30 26 23 26 15 14 13 11 8 13 24 23 28 24 27 23 20 21 17 16 14 10 10 14 19 17 16 15 16 17 16 16 17 15 13 12 13 14 12 12 15 16 16
32 32 33 30 14 12 12 12 13 15 20 21 20 25 37 30 25 25 22 19 15 12 11 12 17 19 18 14 14 16 17 16 16 15 15 15 16 15 15 14 14 14 15
25 33 54 17 13 20 16 17 16 21 24 26 25 21 20 29 34 27 27 23 19 16 13 12 12 17 17 14 16 15 16 15 14 13 14 14 14 16 17 18 18 17 17
29 20 9 16 16 22 23 22 21 25 25 26 27 25 27 28 29 31 32 28 24 19 15 11 12 13 19 17 13 16 15 13 12 12 13 13 13 14 16 16 18 20 21
16 18 18 20 23 24 27 27 28 27 28 27 30 28 33 28 29 28 36 35 28 22 17 14 12 15 18 15 15 16 17 15 13 12 13 13 13 13 15 17 18 18 18
19 21 26 27 29 29 30 32 34 33 32 30 33 34 35 36 38 38 40 38 29 25 19 16 13 14 17 18 15 17 17 14 13 13 14 14 14 14 15 16 17 17 18
22 27 30 33 33 34 35 35 35 35 34 36 38 37 40 41 39 39 43 38 29 26 21 19 16 14 15 18 18 17 16 15 16 14 14 14 16 17 18 17 17 16 16
28 32 34 39 41 40 40 39 38 38 38 39 40 39 45 40 34 32 38 33 30 27 25 23 19 14 14 16 19 19 18 17 16 16 17 15 15 15 15 16 16 15 14
31 33 36 39 42 44 44 44 42 41 39 36 35 38 41 38 33 32 35 33 30 27 26 23 20 16 15 16 17 18 18 17 15 14 17 17 15 15 15 15 15 15 14
33 35 38 41 43 45 44 42 38 35 32 28 29 32 29 20 32 36 37 34 28 26 25 23 20 18 16 15 17 18 18 19 17 19 15 17 18 18 18 17 17 17 18
27 29 30 31 32 30 31 28 23 21 21 20 23 23 15 13 22 30 34 36 29 24 20 19 18 17 16 16 17 18 18 18 19 20 19 19 21 21 20 23 22 21 24
18 18 17 17 20 23 20 20 17 19 20 16 17 18 15 17 25 22 34 39 30 29 22 17 18 18 16 17 17 15 16 18 21 22 18 15 23 18 23 23 21 23 25
13 15 18 15 20 16 19 17 18 16 18 19 19 18 20 21 21 21 31 25 26 28 25 21 18 16 15 16 15 14 14 14 16 17 18 17 16 16 19 23 22 25 24
12 15 15 15 16 13 12 21 18 20 18 18 16 18 21 18 28 26 29 24 24 21 19 17 15 15 13 11 10 10 11 12 13 13 14 14 14 13 14 14 16 17 18
14 14 16 13 10 10 10 8 9 9 9 13 16 13 14 17 26 32 31 28 22 15 16 14 13 12 12 9 9 11 13 14 14 14 14 15 16 17 18 19 20 21 22
12 11 13 12 9 8 5 4 6 4 4 6 4 6 14 17 29 32 19 23 23 17 18 15 13 10 7 8 12 14 15 14 14 14 15 16 17 17 17 17 17 15 15
11 9 9 10 7 2 6 3 2 2 5 6 7 6 3 10 12 6 5 6 11 12 15 11 8 7 6 9 12 13 13 12 12 12 12 11 10 10 10 11 13 13 14
10 8 8 9 7 4 2 5 6 3 3 2 2 6 9 8 14 12 9 11 12 10 8 7 6 9 11 11 11 9 7 6 6 6 6 7 8 9 9 9 10 11 13
9 8 7 7 7 7 8 6 4 4 5 10 15 13 11 9 9 10 13 12 9 12 13 9 11 12 11 8 6 5 5 6 7 8 8 7 7 8 9 9 10 11 12
7 6 7 6 6 7 7 7 4 0 2 2 2 9 7 8 8 9 14 10 5 9 13 13 12 10 7 6 6 7 7 7 6 6 6 7 7 8 8 8 10 12 14
5 4 2 1 3 2 3 4 5 4 5 5 6 8 8 14 12 15 10 8 9 11 11 8 7 6 7 7 7 6 6 6 7 7 8 8 8 9 11 14 16 16 17
Wind_Direction
231 236 242 255 257 247 239 235 238 238 241 244 258 277 286 293 299 293 301 306 301 288 272 262 269 275 271 271 273 270 261 264 264 258 240 244 246 250 258 259 253 251 247
231 233 234 245 254 243 241 236 240 251 256 258 268 274 278 283 281 278 289 300 298 290 277 271 262 262 265 273 277 276 270 268 274 275 254 261 247 252 259 252 261 237 240
236 235 236 241 249 241 243 238 245 256 271 283 290 287 290 283 269 269 280 293 301 289 279 273 276 274 267 265 264 273 281 283 286 284 280 252 268 267 267 242 266 250 246
238 236 236 252 242 238 258 249 230 243 250 259 268 273 276 280 281 271 275 289 304 288 279 278 266 266 273 275 274 270 268 269 271 272 271 266 258 260 264 267 256 234 223
230 216 216 234 236 227 234 261 280 295 295 292 296 293 289 283 269 261 265 269 283 290 280 277 277 262 259 259 257 255 258 262 263 265 264 261 257 240 241 260 238 203 235
234 231 225 206 220 239 255 261 266 302 312 304 307 294 293 281 279 269 260 268 273 278 290 285 274 262 258 251 250 258 260 263 266 267 263 259 253 266 251 218 213 224 231
246 237 235 252 245 237 245 260 270 287 277 301 297 306 287 277 271 253 251 253 256 266 282 282 275 255 258 258 256 252 256 257 256 253 252 250 248 245 229 228 223 233 232
235 274 252 257 250 256 278 275 280 288 287 288 300 298 277 287 274 259 251 250 249 254 259 272 270 251 250 254 253 258 259 262 264 259 258 255 246 250 242 222 220 221 232
250 235 261 282 276 273 282 286 280 278 281 282 287 287 288 296 287 264 254 246 246 244 255 260 254 248 251 246 255 259 254 250 253 259 255 250 242 237 231 237 231 239 241
222 242 269 272 269 273 277 276 274 278 279 278 278 281 283 273 267 259 258 249 241 240 244 252 248 246 249 253 254 250 253 249 248 257 256 249 246 237 234 236 241 246 253
255 261 262 264 271 273 274 277 277 279 282 282 281 282 282 276 262 254 248 231 234 237 238 243 243 245 244 250 251 249 246 249 252 253 255 255 252 253 255 254 255 258 260
272 273 273 275 274 273 273 273 276 278 280 281 282 284 282 276 270 264 231 226 222 232 236 237 235 242 248 243 245 250 258 251 257 257 252 255 261 260 261 262 264 265 265
260 262 265 270 273 272 272 272 272 274 276 279 281 283 281 278 264 237 215 218 223 226 232 236 236 237 249 249 244 243 248 252 255 254 247 258 263 270 268 266 269 273 270
270 270 270 270 269 270 269 270 271 271 273 275 280 283 282 277 247 221 212 215 222 226 229 232 236 237 244 245 246 246 246 245 247 256 248 256 262 268 266 265 266 267 260
275 272 271 270 270 271 271 272 272 271 271 274 278 281 289 268 245 216 215 211 218 230 228 229 234 241 250 249 248 249 247 242 245 262 253 259 263 266 262 260 260 258 245
294 292 292 288 285 285 286 280 272 264 261 270 277 285 276 243 222 219 200 206 214 218 228 233 238 244 251 255 249 248 248 249 246 257 262 258 267 265 262 261 265 256 255
310 329 320 319 305 286 274 275 264 256 257 253 264 278 281 253 235 236 219 212 217 223 229 243 240 242 247 247 251 252 240 241 244 252 255 246 268 256 263 263 263 268 268
332 333 343 327 325 293 250 275 268 265 253 247 250 271 274 272 248 238 223 216 228 224 228 242 238 237 240 244 247 247 253 253 256 256 262 269 274 279 256 268 262 273 273
327 335 334 338 338 332 291 274 279 269 265 265 247 264 266 281 215 220 221 218 204 211 223 225 223 223 223 222 229 242 254 258 261 264 266 267 266 265 266 265 266 268 272
315 325 326 331 345 326 324 300 296 285 296 268 278 285 262 251 202 188 181 197 200 196 202 198 198 198 208 219 242 252 256 256 253 252 255 258 264 271 277 280 282 284 285
306 301 310 311 324 332 322 282 255 293 323 314 254 243 221 212 238 229 179 171 184 176 179 193 188 219 228 244 252 252 253 255 257 260 261 264 270 276 279 284 286 286 285
307 297 291 289 300 323 351 6 233 286 294 281 244 295 272 241 230 167 156 164 197 204 189 205 189 181 254 275 261 255 255 257 258 256 258 261 263 265 266 273 281 284 285
304 301 290 277 270 246 261 304 325 356 356 325 238 165 116 114 154 174 186 177 181 198 171 180 222 258 279 274 264 255 252 246 243 247 252 253 256 264 269 276 285 291 295
303 301 295 278 261 253 256 268 281 21 93 159 154 142 106 137 166 160 185 181 172 213 209 227 256 275 275 266 245 236 247 256 262 265 264 265 268 275 284 291 293 294 294
307 301 287 261 238 237 250 257 269 343 241 235 32 99 120 145 184 203 168 194 218 233 242 259 268 259 248 248 251 257 261 261 259 263 273 277 281 285 291 298 302 302 301
343 345 322 240 208 197 179 206 209 210 197 173 153 160 184 178 177 179 199 252 273 266 250 242 242 252 263 272 276 275 276 281 282 282 280 280 283 288 295 296 298 299 299